Flag for Canada Weather past 2 weeks in Trois-Rivieres, Quebec, Canada

Now
16 °F

Cold.


Feels Like: 1 °F
Forecast: -1 / 22 °F
Wind: 14 mph from Southwest

Location: Trois Rivieres

Current Time: Feb 28, 2015 at 11:28:29 PM

Latest Report: Feb 28, 2015 at 10:00 PM


Visibility: N/A

Pressure: 30.64 "Hg

Humidity: 74%

Dew point: 9 °F

Location of Trois-RivieresLocation

Historic Weather in Trois-Rivieres — Graph

°F

Trois-Rivieres temperature yesterday

Maximum temperature yesterday: 15 °F (at 5:00 PM)
Minimum temperature yesterday: -12 °F (at 5:00 AM)
Average temperature yesterday: 3 °F

Past Weeks' High & Low Weather Summary

 TemperatureHumidityPressure
High25 °F (Feb 22, 5:00 PM)100% (Feb 21, 6:00 PM)30.67 "Hg (Feb 21, 6:00 PM)
Low-14 °F (Feb 17, 6:00 AM)35% (Feb 16, 3:00 PM)29.57 "Hg (Feb 20, 12:00 AM)
Average6 °F72%30.05 "Hg
* Reported Feb 13 10:00 PM — Feb 28 10:00 PM, Trois-Rivieres, Weather by CustomWeather, © 2015

Note: Actual official high and low records may vary slightly from our data, if they occured in-between our weather recording intervals... More about our weather records

Advertising

Trois-Rivieres weather history for previous 24 hours

 ConditionsComfort  
Time TempWeatherWind HumidityBarometerVisibility
10:00 PM
Sat, Feb 28
16 °FCold.14 mph74%30.64 "HgN/A
9:00 PM17 °FCold.14 mph72%30.64 "HgN/A
8:00 PM18 °FCold.17 mph77%30.63 "HgN/A
7:00 PM18 °FCold.15 mph75%30.63 "HgN/A
6:00 PM20 °FCold.18 mph75%30.61 "HgN/A
5:00 PM20 °FCold.22 mph74%30.60 "HgN/A
4:00 PM20 °FCold.23 mph71%30.60 "HgN/A
3:00 PM20 °FCold.24 mph74%30.61 "HgN/A
2:00 PM18 °FCold.21 mph76%30.63 "HgN/A
1:00 PM16 °FCold.24 mph78%30.64 "HgN/A
12:00 PM14 °FCold.21 mph80%30.66 "HgN/A
11:00 AM13 °FCold.20 mph81%30.67 "HgN/A
10:00 AM10 °FCold.17 mph81%30.67 "HgN/A
9:00 AM8 °FFrigid.14 mph84%30.67 "HgN/A
8:00 AM5 °FFrigid.10 mph84%30.66 "HgN/A
7:00 AM3 °FFrigid.8 mph84%30.63 "HgN/A
6:00 AM6 °FFrigid.13 mph89%30.61 "HgN/A
5:00 AM7 °FFrigid.14 mph89%30.59 "HgN/A
4:00 AM6 °FFrigid.10 mph87%30.57 "HgN/A
3:00 AM7 °FFrigid.14 mph87%30.55 "HgN/A
2:00 AM8 °FFrigid.16 mph82%30.54 "HgN/A
1:00 AM9 °FFrigid.16 mph78%30.52 "HgN/A
12:00 AM10 °FCold.15 mph77%30.50 "HgN/A
11:00 PM
Fri, Feb 27
11 °FCold.13 mph73%30.48 "HgN/A
Weather by CustomWeather, © 2015

See weather overviewHow to use our weather pages